Lexington Weather

Lexington, Massachusetts, USA

34°F
4/16/2021 10:39am 
  • Lexington Conditions: Snow, Fog, Overcast
  • Temperature: 34.0°F / 1.1°C 
  • Dew Point: 32.7°F 
  • Relative Humidity: 95
  • Wind: Calm, 10-min avg: Calm, gust: None
  • Barometer: 29.48 in Steady
  • Visibility: ½ mile
  • Snow Today: 1.3 in
  •   

Regional Weather Roundup
for Boston / Norton, MA

        
000
ASUS41 KBOX 110004
RWRBOX

REGIONAL WEATHER ROUNDUP
NATIONAL WEATHER SERVICE BOSTON/NORTON MA
800 PM EDT SAT APR 10 2021

NOTE:  "FAIR" INDICATES FEW OR NO CLOUDS BELOW 12,000 FEET WITH NO 
SIGNIFICANT WEATHER AND/OR OBSTRUCTIONS TO VISIBILITY.

MAZALL-110100-
EASTERN MASSACHUSETTS
  
CITY           SKY/WX    TMP DP  RH WIND       PRES   REMARKS
BOSTON         PTCLDY    69  52  54 SW16G25   29.77R                  
6HR MIN TEMP:  64; 6HR MAX TEMP:  78;                                

BEVERLY        CLOUDY    65  55  70 S3        29.75S                  
LAWRENCE       PTCLDY    66  55  67 S5        29.76S                  
BEDFORD        PTCLDY    70  51  51 SW12      29.75R                  
BLUE HILL        N/A     64  52  64 SW16G25   29.78R                  
NORWOOD        CLEAR     68  52  56 SW10      29.78R                  
MARSHFIELD     CLEAR     63  52  67 SW9G20    29.78S                  
PLYMOUTH       CLEAR     57  50  77 SW9       29.81S                  
TAUNTON        CLEAR     58  50  75 SW9G18    29.81S                  
NEW BEDFORD    CLEAR     55  49  80 SW7       29.82F                  
$$

MAZALL-110100-
CAPE COD AND THE ISLANDS
  
CITY           SKY/WX    TMP DP  RH WIND       PRES   REMARKS
FALMOUTH       CLEAR     52  50  93 W13G18    29.84S                  
HYANNIS        MOCLDY    53  51  93 SW14      29.81F                  
CHATHAM        FOG       49  47  93 SW12G23   29.85S VSB 1/2          
PROVINCETOWN   CLEAR     49  47  93 SW15G21   29.81S                  
NANTUCKET      FOG       47  47 100 SW12      29.86F VSB 1/4          
MARTHAS VNYRD  CLOUDY    50  49  96 SW9       29.85S FOG              
$$
 
MAZALL-110100-
CENTRAL AND WESTERN MASSACHUSETTS
  
CITY           SKY/WX    TMP DP  RH WIND       PRES   REMARKS
WORCESTER      CLEAR     64  51  62 SW15      29.80S                  
6HR MIN TEMP:  64; 6HR MAX TEMP:  73;                                

FITCHBURG      CLEAR     70  52  52 VRB3      29.77R                  
ORANGE         PTCLDY    65  52  62 S9        29.79R                  
SPRINGFIELD    MOCLDY    66  52  60 S7        29.78R                  
WESTFIELD      PTCLDY    66  53  63 S14       29.78R                  
NORTH ADAMS    PTCLDY    61  47  59 CALM      29.78R                  
PITTSFIELD     PTCLDY    65  51  60 VRB6      29.79S                  
$$
 
RIZALL-110100-
RHODE ISLAND
  
CITY           SKY/WX    TMP DP  RH WIND       PRES   REMARKS
PROVIDENCE     CLEAR     60  51  72 S9        29.83S                  
6HR MIN TEMP:  60; 6HR MAX TEMP:  74;                                

NEWPORT        CLEAR     48  47  96 S7        29.84S                  
BLOCK ISLAND   LGT RAIN  47  46  97 SW13      29.87S FOG              
SMITHFIELD     CLEAR     62  54  74 SW8       29.82S                  
WESTERLY       CLEAR     50  48  93 SW5       29.85F                  
$$
 
CTZALL-110100-
CONNECTICUT
  
CITY           SKY/WX    TMP DP  RH WIND       PRES   REMARKS
BRADLEY INTL   PTCLDY    66  52  60 S12       29.80S                  
6HR MIN TEMP:  66; 6HR MAX TEMP:  76;                                

HARTFORD       PTCLDY    64  52  64 S9        29.81F                  
BRIDGEPORT     MOCLDY    57  50  77 SW3       29.84F                  
DANBURY        MOCLDY    64  52  64 S3        29.83F                  
GROTON         CLEAR     48  46  93 S8        29.85F                  
NEW HAVEN      MOCLDY    55  50  83 CALM      29.84F                  
CHESTER        FAIR      57  52  82 S6        29.84F                  
MERIDEN        PTCLDY    60  50  69 S8        29.83F                  
WILLIMANTIC    CLEAR     63  51  65 SW6       29.82S                  
OXFORD         MOCLDY    60  55  83 S6        29.85S                  
$$

MEZ002-015-021-024-NHZ003-005-008-011-012-014-VTZ005-008-110100-
NORTHERN NEW ENGLAND
  
CITY           SKY/WX    TMP DP  RH WIND       PRES   REMARKS
PORTLAND ME    PTCLDY    55  48  77 SE5       29.76S                  
6HR MIN TEMP:  55; 6HR MAX TEMP:  69;                                

BANGOR ME      CLOUDY    52  45  77 SE7       29.82S                  
CONCORD NH     PTCLDY    67  48  50 CALM      29.74R                  
MANCHESTER NH  PTCLDY    68  52  56 S5        29.73S                  
NASHUA NH      PTCLDY    72  52  49 CALM      29.75R                  
PORTSMOUTH NH  PTCLDY    60  48  64 SE5       29.75S                  
JAFFREY NH     CLEAR     67  51  56 SW8       29.79R                  
KEENE NH       PTCLDY    68  52  56 S9        29.76R                  
BURLINGTON VT  PTCLDY    69  48  47 CALM      29.75S                  
MT. WASHINGTON NOT AVBL                                               
$$

NYZ052-076-110100-
EASTERN NEW YORK
  
CITY           SKY/WX    TMP DP  RH WIND       PRES   REMARKS
ALBANY         MOCLDY    68  52  56 SE9       29.76F                  
6HR MIN TEMP:  67; 6HR MAX TEMP:  74;                                

NEW YORK CITY  CLOUDY    59  52  77 S8        29.82F                  
6HR MIN TEMP:  59; 6HR MAX TEMP:  67;                                

$$
 
ANZALL-110100-
MARINE OBSERVATIONS
  
STATION/POSITION TIME  TEMP    WIND        PRES    VSBY  WAVE
                       AIR SEA DIR/SP/G                  HT/PER
                 (UTC) (F)     (DEG/KT/KT) (MB)    (MI)  (FT/S)
BOSTON BUOY      2340   53 46  190/ 10/ 12 1008.4R
BUZZARDS BAY     2300          230/ 17/ 18 1011.9F
NANTUCKET SOUND  2340      46                N/A
MASS BAY-STELLWA 2304   50     170/ 10/ 12 1006.7F  1 7/8  5/11
ISLE OF SHOALS   2300   54     160/ 20/ 21 1006.6F
S OF BLOCK IS    2326      47                N/A           3/12
$$

......................KEY.........................
  SKY/WX - SKY CONDITION/PRESENT WEATHER
  TMP    - TEMPERATURE IN FAHRENHEIT
  DWPT   - DEWPOINT IN FAHRENHEIT
  RH     - RELATIVE HUMIDITY IN PERCENT
  WIND   - DIRECTION AND SPEED IN MPH
  PRES   - MEAN SEA LEVEL PRESSURE IN INCHES OF HG
  WCI    - WIND CHILL INDEX
  VSB    - VISIBILITY IN MILES
  HX     - HEAT INDEX
  TC     - TEMPERATURE IN CELSIUS
  VRB    - VARIABLE WIND DIRECTION
  N/A    - NOT AVAILABLE
  
      

Other recent Regional Weather Roundups

Fri Apr 16, 10:05am

Fri Apr 16, 9:04am

Fri Apr 16, 8:04am

Fri Apr 16, 7:04am

Fri Apr 16, 6:04am

Fri Apr 16, 5:04am

Fri Apr 16, 4:04am

Fri Apr 16, 3:04am

Fri Apr 16, 2:04am

Fri Apr 16, 1:04am

Fri Apr 16, 12:04am

Thu Apr 15, 11:05pm

Thu Apr 15, 10:04pm

Thu Apr 15, 9:04pm

Thu Apr 15, 8:04pm

Thu Apr 15, 7:05pm

Thu Apr 15, 6:04pm

Thu Apr 15, 5:05pm

Thu Apr 15, 4:04pm

Thu Apr 15, 3:05pm

Thu Apr 15, 2:04pm

Thu Apr 15, 1:05pm

Thu Apr 15, 12:04pm

Thu Apr 15, 11:04am

Thu Apr 15, 10:05am

Thu Apr 15, 9:04am

Thu Apr 15, 8:04am

Thu Apr 15, 7:04am

Thu Apr 15, 6:04am

Thu Apr 15, 5:04am

Thu Apr 15, 4:04am

Thu Apr 15, 3:04am

Thu Apr 15, 2:04am

Thu Apr 15, 1:04am

Thu Apr 15, 12:04am

Wed Apr 14, 11:04pm

Wed Apr 14, 10:04pm

Wed Apr 14, 9:04pm

Wed Apr 14, 8:04pm

Wed Apr 14, 7:04pm

Wed Apr 14, 6:04pm

Wed Apr 14, 5:05pm

Wed Apr 14, 4:04pm

Wed Apr 14, 3:05pm

Wed Apr 14, 2:04pm

Wed Apr 14, 1:05pm

Wed Apr 14, 12:04pm

Wed Apr 14, 11:04am

Wed Apr 14, 10:04am

Wed Apr 14, 9:04am

Wed Apr 14, 8:04am

Wed Apr 14, 7:04am

Wed Apr 14, 6:04am

Wed Apr 14, 5:04am

Wed Apr 14, 4:04am

Wed Apr 14, 3:04am

Wed Apr 14, 2:04am

Wed Apr 14, 1:04am

Wed Apr 14, 12:04am

Tue Apr 13, 11:04pm

Tue Apr 13, 10:05pm

Tue Apr 13, 9:05pm

Tue Apr 13, 8:05pm

Tue Apr 13, 7:04pm

Tue Apr 13, 6:04pm

Tue Apr 13, 5:05pm

Tue Apr 13, 4:04pm

Tue Apr 13, 3:04pm

Tue Apr 13, 2:05pm

Tue Apr 13, 1:04pm

Tue Apr 13, 12:05pm

Tue Apr 13, 11:05am

Tue Apr 13, 10:04am

Tue Apr 13, 9:04am

Tue Apr 13, 8:04am

Tue Apr 13, 7:04am

Tue Apr 13, 6:04am

Tue Apr 13, 5:04am

Tue Apr 13, 4:04am

Tue Apr 13, 3:04am

Tue Apr 13, 2:04am

Tue Apr 13, 1:04am

Tue Apr 13, 12:05am

Mon Apr 12, 11:04pm

Mon Apr 12, 10:04pm

Mon Apr 12, 9:04pm

Mon Apr 12, 8:04pm

Mon Apr 12, 7:05pm

Mon Apr 12, 6:04pm

Mon Apr 12, 5:04pm

Mon Apr 12, 4:04pm

Mon Apr 12, 3:05pm

Mon Apr 12, 2:04pm

Mon Apr 12, 1:05pm

Mon Apr 12, 12:04pm

Mon Apr 12, 11:04am

Mon Apr 12, 10:04am

Mon Apr 12, 9:04am

Mon Apr 12, 8:04am

Mon Apr 12, 7:04am

Mon Apr 12, 6:04am

Mon Apr 12, 5:04am

Mon Apr 12, 4:04am

Mon Apr 12, 3:04am

Mon Apr 12, 2:04am

Mon Apr 12, 1:05am

Mon Apr 12, 12:04am

Sun Apr 11, 11:04pm

Sun Apr 11, 10:04pm

Sun Apr 11, 9:04pm

Sun Apr 11, 8:04pm

Sun Apr 11, 7:04pm

Sun Apr 11, 6:05pm

Sun Apr 11, 5:05pm

Sun Apr 11, 4:04pm

Sun Apr 11, 3:05pm

Sun Apr 11, 2:05pm

Sun Apr 11, 1:05pm

Sun Apr 11, 12:04pm

Sun Apr 11, 11:05am

Sun Apr 11, 10:05am

Sun Apr 11, 9:04am

Sun Apr 11, 8:04am

Sun Apr 11, 7:04am

Sun Apr 11, 6:04am

Sun Apr 11, 5:04am

Sun Apr 11, 4:04am

Sun Apr 11, 3:04am

Sun Apr 11, 2:04am

Sun Apr 11, 1:05am

Sun Apr 11, 12:04am

Sat Apr 10, 11:05pm

Sat Apr 10, 10:04pm

Sat Apr 10, 9:04pm

Sat Apr 10, 7:05pm

Sat Apr 10, 6:04pm

Sat Apr 10, 5:04pm

Sat Apr 10, 4:04pm

Sat Apr 10, 3:04pm

Sat Apr 10, 2:05pm

Sat Apr 10, 1:04pm

Sat Apr 10, 12:04pm

Sat Apr 10, 11:04am

Sat Apr 10, 10:04am

Sat Apr 10, 9:04am

Sat Apr 10, 8:04am

Sat Apr 10, 7:04am

Sat Apr 10, 6:04am

Sat Apr 10, 5:04am

Sat Apr 10, 4:04am

Sat Apr 10, 3:04am

Sat Apr 10, 2:04am

Sat Apr 10, 1:05am

Sat Apr 10, 12:04am

Fri Apr 9, 11:04pm

Fri Apr 9, 10:05pm

Fri Apr 9, 9:04pm

Fri Apr 9, 8:05pm

Fri Apr 9, 7:05pm

Fri Apr 9, 6:04pm

Fri Apr 9, 5:04pm

Fri Apr 9, 4:05pm

Fri Apr 9, 3:05pm

Fri Apr 9, 2:04pm

Fri Apr 9, 1:04pm

Fri Apr 9, 12:04pm

Fri Apr 9, 11:05am

Meta data:

ID: 52082960-1198-418a-936e-d00e82438e16
Link: https://api.weather.gov/products/52082960-1198-418a-936e-d00e82438e16